EW1179 Weather Reports


Display with metric or nautical units.
time (UTC)temp
F
wind
direction
speed
MPH
gust
MPH
rain 1hr
in
rain 24hr
in
rain mn
in
humidity
%
barometer
mb
20260831010025 72 24 0.0 4.0 0.00 0.00 0.00 40 1009.2
20260831004525 73 291 0.0 5.0 0.00 0.00 0.00 40 1009.0
20260831003024 74 205 0.0 4.0 0.00 0.00 0.00 35 1008.8
20260831001624 74 217 1.0 9.0 0.00 0.00 0.00 31 1009.0
20260831000023 75 244 1.0 9.0 0.00 0.00 0.00 36 1009.0
20260830234529 75 223 2.0 10.0 0.00 0.00 0.00 35 1009.0
20260830233021 75 244 4.0 15.0 0.00 0.00 0.00 37 1009.0
20260830231519 75 272 1.0 12.0 0.00 0.00 0.00 39 1009.2
20260830230018 76 279 3.0 12.0 0.00 0.00 0.00 41 1009.2
20260830224517 77 183 5.0 15.0 0.00 0.00 0.00 38 1009.3
20260830223015 78 245 2.0 8.0 0.00 0.00 0.00 36 1009.4
20260830221513 78 217 3.0 11.0 0.00 0.00 0.00 39 1009.7
20260830220018 79 221 2.0 9.0 0.00 0.00 0.00 40 1009.8
20260830214510 80 215 3.0 9.0 0.00 0.00 0.00 38 1009.9
20260830213012 80 243 3.0 10.0 0.00 0.00 0.00 39 1010.1
20260830211510 82 191 2.0 7.0 0.00 0.00 0.00 37 1010.0
20260830210010 84 221 0.0 5.0 0.00 0.00 0.00 35 1010.1
20260830204507 83 228 0.0 7.0 0.00 0.00 0.00 35 1010.1
20260830203015 84 225 1.0 6.0 0.00 0.00 0.00 35 1010.2
20260830201506 85 215 1.0 6.0 0.00 0.00 0.00 33 1010.2
20260830200004 85 235 0.0 7.0 0.00 0.00 0.00 33 1010.3
20260830194502 86 238 1.0 6.0 0.00 0.00 0.00 32 1010.4
20260830193127 83 117 0.0 3.0 0.00 0.00 0.00 27 1010.6
20260830191554 82 184 0.0 3.0 0.00 0.00 0.00 27 1010.8
20260830190050 79 355 0.0 3.0 0.00 0.00 0.00 26 1011.1
20260830184545 77 236 0.0 5.0 0.00 0.00 0.00 28 1011.3
20260830183041 76 76 0.0 6.0 0.00 0.00 0.00 29 1011.6
20260830181538 75 5 0.0 5.0 0.00 0.00 0.00 34 1011.7
20260830180038 74 88 0.0 3.0 0.00 0.00 0.00 36 1011.7
20260830174534 72 119 0.0 1.0 0.00 0.00 0.00 44 1011.8
20260830173040 70 86 0.0 3.0 0.00 0.00 0.00 47 1011.7
20260830171521 69 124 0.0 3.0 0.00 0.00 0.00 52 1011.8
20260830170016 67 95 0.0 3.0 0.00 0.00 0.00 56 1011.9
20260830164511 65 80 0.0 3.0 0.00 0.00 0.00 60 1011.9
20260830163015 64 101 0.0 2.0 0.00 0.00 0.00 63 1012.0
20260830161504 62 344 0.0 2.0 0.00 0.00 0.00 67 1012.1
20260830160100 60 34 0.0 4.0 0.00 0.00 0.00 70 1012.1
20260830154557 59 58 0.0 0.0 0.00 0.00 0.00 74 1012.2
20260830153054 57 331 0.0 0.0 0.00 0.00 0.00 76 1012.3
20260830151551 55 216 0.0 0.0 0.00 0.00 0.00 72 1012.3
20260830150054 53 105 0.0 0.0 0.00 0.00 0.00 74 1012.2
20260830144551 51 286 0.0 0.0 0.00 0.00 0.00 79 1012.2
20260830143043 50 286 0.0 0.0 0.00 0.00 0.00 78 1012.1
20260830141538 49 261 0.0 0.0 0.00 0.00 0.00 77 1011.9
20260830140034 49 261 0.0 0.0 0.00 0.00 0.00 75 1011.8
20260830134531 49 261 0.0 0.0 0.00 0.00 0.00 73 1011.7
20260830133028 49 261 0.0 0.0 0.00 0.00 0.00 73 1011.5
20260830131532 49 279 0.0 0.0 0.00 0.00 0.00 72 1011.5
20260830130025 49 279 0.0 0.0 0.00 0.00 0.00 72 1011.4
20260830124530 50 279 0.0 0.0 0.00 0.00 0.00 70 1011.3
20260830123021 50 288 0.0 0.0 0.00 0.00 0.00 69 1011.3
20260830121520 50 288 0.0 0.0 0.00 0.00 0.00 68 1011.2
20260830120018 50 288 0.0 0.0 0.00 0.00 0.00 68 1011.3
20260830114516 51 288 0.0 0.0 0.00 0.00 0.00 68 1011.2
20260830113015 51 288 0.0 0.0 0.00 0.00 0.00 68 1011.2
20260830111514 51 288 0.0 0.0 0.00 0.00 0.00 67 1011.3
20260830110011 52 288 0.0 0.0 0.00 0.00 0.00 66 1011.2
20260830104512 52 246 0.0 0.0 0.00 0.00 0.00 66 1011.1
20260830103008 52 246 0.0 0.0 0.00 0.00 0.00 66 1011.2
20260830101506 53 246 0.0 0.0 0.00 0.00 0.00 65 1011.1
20260830100013 53 246 0.0 0.0 0.00 0.00 0.00 64 1011.2
20260830094504 53 246 0.0 0.0 0.00 0.00 0.00 62 1011.1
20260830093105 54 246 0.0 0.0 0.00 0.00 0.00 62 1011.0
20260830091559 54 246 0.0 0.0 0.00 0.00 0.00 62 1011.0
20260830090055 55 246 0.0 0.0 0.00 0.00 0.00 60 1010.9
20260830084554 55 246 0.0 0.0 0.00 0.00 0.00 58 1011.0
20260830083051 56 246 0.0 0.0 0.00 0.00 0.00 58 1011.0
20260830081552 56 246 0.0 0.0 0.00 0.00 0.00 58 1011.1
20260830080048 57 246 0.0 0.0 0.00 0.00 0.00 58 1010.9
20260830074548 57 246 0.0 0.0 0.00 0.00 0.00 56 1010.9
20260830073045 58 246 0.0 0.0 0.00 0.00 0.00 55 1011.0
20260830071611 58 246 0.0 0.0 0.00 0.00 0.00 53 1010.8
20260830070040 59 246 0.0 0.0 0.00 0.00 0.00 53 1010.8
20260830064536 60 246 0.0 0.0 0.00 0.00 0.00 51 1010.7
20260830063038 60 246 0.0 0.0 0.00 0.00 0.00 52 1010.6
20260830061535 61 246 0.0 0.0 0.00 0.00 0.00 50 1010.5
20260830060034 62 246 0.0 0.0 0.00 0.00 0.00 48 1010.5
20260830054534 62 246 0.0 0.0 0.00 0.00 0.00 47 1010.4
20260830053033 63 232 0.0 0.0 0.00 0.00 0.00 46 1010.4
20260830051536 64 232 0.0 0.0 0.00 0.00 0.00 45 1010.5
20260830050032 66 232 0.0 0.0 0.00 0.00 0.00 43 1010.4
20260830044549 66 232 0.0 0.0 0.00 0.00 0.00 42 1010.5
20260830043031 67 232 0.0 0.0 0.00 0.00 0.00 40 1010.5
20260830041531 69 85 0.0 0.0 0.00 0.00 0.00 38 1010.3
20260830040049 70 85 0.0 0.0 0.00 0.00 0.00 36 1010.2
20260830034530 71 85 0.0 0.0 0.00 0.00 0.00 36 1009.9
20260830033030 73 85 0.0 0.0 0.00 0.00 0.00 34 1009.6
20260830031529 74 84 0.0 0.0 0.00 0.00 0.00 32 1009.5
20260830030028 75 221 0.0 0.0 0.00 0.00 0.00 31 1009.2
20260830024528 76 9 0.0 0.0 0.00 0.00 0.00 30 1009.1
20260830023028 77 24 0.0 0.0 0.00 0.00 0.00 28 1009.1
20260830021529 77 207 0.0 1.0 0.00 0.00 0.00 27 1009.0
20260830020031 78 199 0.0 5.0 0.00 0.00 0.00 27 1008.9
20260830014526 79 20 1.0 5.0 0.00 0.00 0.00 27 1008.9
20260830013054 79 129 0.0 3.0 0.00 0.00 0.00 28 1008.9
20260830011629 80 278 1.0 6.0 0.00 0.00 0.00 26 1008.8